Flag for Senegal Weather past 2 weeks in Thiès, Senegal

Now
82 °F

Partly cloudy.


Feels Like: 91 °F
Forecast: N/A
Wind: 5 mph from Northwest

Location: Dakar / Yoff

Current Time: Sep 16, 2014 at 8:00:31 PM

Latest Report: Sep 16, 2014 at 7:30 PM


Visibility: N/A

Pressure: 29.89 "Hg

Humidity: 84%

Dew point: 77 °F

Location of ThièsLocation

Historic Weather in Thiès — Graph

°F

Thiès temperature yesterday

Maximum temperature yesterday: 86 °F (at 1:00 PM)
Minimum temperature yesterday: 75 °F (at 11:00 PM)
Average temperature yesterday: 82 °F

Past Weeks' High & Low Weather Summary

 TemperatureHumidityPressure
High88 °F (Sep 5, 4:00 PM)100% (Sep 9, 11:30 PM)30.04 "Hg (Sep 9, 11:30 PM)
Low73 °F (Sep 9, 10:00 PM)62% (Sep 13, 9:30 AM)29.74 "Hg (Sep 7, 4:30 PM)
Average82 °F82%29.88 "Hg
* Reported Sep 1 7:00 PM — Sep 16 7:00 PM, Thiès, Weather by CustomWeather, © 2014

Note: Actual official high and low records may vary slightly from our data, if they occured in-between our weather recording intervals... More about our weather records

Advertising

Thiès weather history for previous 24 hours

 ConditionsComfort  
Time TempWeatherWind HumidityBarometerVisibility
7:00 PM
Sep 16
84 °FScattered clouds.7 mph79%29.89 "HgN/A
6:30 PM84 °FScattered clouds.9 mph79%29.86 "HgN/A
6:00 PM86 °FScattered clouds.8 mph75%29.86 "HgN/A
5:30 PM86 °FScattered clouds.9 mph75%29.86 "HgN/A
5:00 PM86 °FScattered clouds.7 mph79%29.86 "HgN/A
4:30 PM86 °FScattered clouds.10 mph75%29.86 "HgN/A
4:00 PM86 °FScattered clouds.10 mph75%29.86 "HgN/A
3:30 PM86 °FScattered clouds.10 mph75%29.86 "HgN/A
3:00 PM86 °FScattered clouds.9 mph79%29.89 "HgN/A
2:30 PM86 °FScattered clouds.12 mph75%29.89 "HgN/A
2:00 PM86 °FScattered clouds.10 mph79%29.89 "HgN/A
1:30 PM86 °FScattered clouds.9 mph79%29.92 "HgN/A
1:00 PM86 °FBroken clouds.8 mph79%29.92 "HgN/A
12:30 PM86 °FBroken clouds.9 mph79%29.92 "HgN/A
11:30 AM84 °FBroken clouds.9 mph84%29.95 "HgN/A
11:00 AM84 °FScattered clouds.7 mph84%29.95 "HgN/A
10:30 AM84 °FBroken clouds.8 mph84%29.95 "HgN/A
10:00 AM84 °FBroken clouds.8 mph84%29.95 "HgN/A
9:30 AM84 °FBroken clouds.8 mph79%29.92 "HgN/A
9:00 AM82 °FBroken clouds.6 mph84%29.92 "HgN/A
8:30 AM81 °FPartly sunny.6 mph89%29.92 "HgN/A
8:00 AM81 °FPartly sunny.3 mph84%29.92 "HgN/A
7:30 AM79 °FPartly sunny.3 mph89%29.92 "HgN/A
7:00 AM79 °FPartly sunny.5 mph89%29.89 "HgN/A
6:30 AM79 °FPassing clouds.5 mph89%29.89 "HgN/A
6:00 AM79 °FPassing clouds.5 mph89%29.89 "HgN/A
5:30 AM79 °FPassing clouds.5 mph89%29.89 "HgN/A
5:00 AM79 °FPassing clouds.2 mph84%29.89 "HgN/A
4:30 AM79 °FPassing clouds.3 mph84%29.89 "HgN/A
4:00 AM79 °FPartly cloudy.5 mph84%29.89 "HgN/A
3:30 AM81 °FPartly cloudy.7 mph74%29.92 "HgN/A
3:00 AM81 °FPassing clouds.3 mph79%29.89 "HgN/A
2:30 AM79 °FPassing clouds.7 mph79%29.86 "HgN/A
2:00 AM79 °FPassing clouds.6 mph84%29.89 "HgN/A
1:00 AM77 °FPartly cloudy.3 mph83%29.92 "HgN/A
12:30 AM75 °FPartly cloudy.5 mph89%29.92 "HgN/A
12:00 AM75 °FThunderstorms. Partly cloudy.2 mph89%29.95 "Hg4 mi
11:30 PM
Sep 15
75 °FThunderstorms. Partly cloudy.7 mph89%29.98 "Hg4 mi
11:00 PM75 °FThunderstorms. Partly cloudy.10 mph89%29.98 "Hg4 mi
10:30 PM77 °FStrong thunderstorms. Partly cloudy.17 mph83%30.04 "Hg4 mi
10:00 PM81 °FThunderstorms. Passing clouds.No wind89%29.98 "HgN/A
9:30 PM82 °FThunderstorms. Passing clouds.1 mph84%29.98 "HgN/A
9:00 PM81 °FThunderstorms. Passing clouds.3 mph84%29.95 "HgN/A
8:30 PM82 °FThunderstorms. Passing clouds.5 mph79%29.92 "HgN/A
8:00 PM82 °FPassing clouds.6 mph79%29.92 "HgN/A
Weather by CustomWeather, © 2014

See weather overviewHow to use our weather pages